Tracking 35331 objects as of 13-Sep-2026
HD Live streaming from Space Station
objects crossing your sky now

STARLINK-11409

Track STARLINK-11409 now!
10-day predictions
STARLINK-11409 is classified as:


NORAD ID: 63061
Int'l Code: 2025-035K
Launch date: February 21, 2025
Source: United States (US)
Launch site: AIR FORCE EASTERN TEST RANGE (AFETR)
Your satellite tracking list
Your tracking list is empty




NASA's NSSDC Master Catalog

Two Line Element Set (TLE):
1 63061U 25035K   26256.54427845  .00129560  00000-0  99730-3 0  9995
2 63061  42.9992 323.1812 0001636 293.4675  66.6020 15.70845175 90760
Source of the keplerian elements: AFSPC